Location: Slidell
(30.2789°N, 89.7378°W)
Time: 19:11:44
(UTC-05:00)

Daily predictions for brighter satellites

Satellite Brightness Start Highest point End
(mag) Time Altitude Azimuth Time Altitude Azimuth Time Altitude Azimuth
H-2A R/B 3.2 19:26:41 10° W 19:29:54 59° S 19:44:57 10° ESE
OE (NEXTSAT) 4.4 19:47:05 10° NW 19:50:39 86° SW 19:54:13 10° SE
Helios 1A 3.1 19:47:35 10° SSE 19:51:38 54° ENE 19:55:44 10° N
ATLAS 2A CENTAUR R/B 2.7 19:44:12 10° W 19:51:50 37° SSW 19:54:22 10° SE
Cosmos 1346 Rocket 3.6 19:49:24 10° NNE 19:52:56 30° E 19:56:28 10° SE
USA 186 3.9 19:52:42 10° E 19:53:17 10° ENE 19:53:52 10° ENE
ATLAS 3B CENTAUR R/B 0.6 19:50:48 10° W 19:53:25 42° S 19:55:10 10° ESE
OTV 4 1.8 19:52:58 10° NW 19:55:36 28° NNE 19:58:14 10° E
Cosmos 1777 Rocket 4.0 19:50:46 10° N 19:56:01 70° ENE 20:01:16 10° SSE
Cosmos 1536 4.4 19:55:08 10° SSW 19:58:53 40° W 20:02:42 10° N
NOSS 3-4 (A) 4.1 19:52:31 10° NNW 19:59:29 55° ENE 20:06:50 10° SE
NOSS 3-4 (C) 4.1 19:52:39 10° NNW 19:59:37 54° ENE 20:06:56 10° SE
SL-24 R/B - RUBIN 2 4.3 19:54:28 10° SSW 19:59:58 69° ESE 20:06:12 10° NNE
Cosmos 1461 3.6 20:01:00 10° N 20:04:39 33° ENE 20:07:47 12° ESE
Cosmos 1821 Rocket 4.2 19:59:53 10° S 20:05:59 78° W 20:12:06 10° N
Cosmos 1605 Rocket 4.1 20:02:57 10° S 20:09:09 60° E 20:15:20 10° NNE
CZ-4B DEB 3.2 20:07:36 10° SSE 20:10:43 43° ENE 20:13:51 10° N
Spot 2 Rocket 3.7 20:08:26 10° S 20:13:30 78° WSW 20:18:36 10° NNW
Cosmos 1697 Rocket 2.9 20:09:49 10° S 20:15:11 46° ESE 20:20:34 10° NNE
METEOR-M 4.3 20:12:19 10° S 20:17:38 76° WSW 20:23:00 10° NNW
Cosmos 1025 Rocket 4.3 20:13:32 10° NNW 20:17:39 43° W 20:21:44 10° SSW
Meteor 2-15 4.4 20:15:14 10° N 20:21:18 84° E 20:27:21 10° S
Cosmos 1455 Rocket 3.8 20:22:08 10° SSW 20:26:21 55° W 20:30:38 10° N
Iridium 4 Rocket 3.9 20:22:15 10° NNE 20:26:35 33° E 20:29:07 19° SE
Cosmos 1626 Rocket 4.0 20:23:43 10° N 20:27:50 39° E 20:30:34 19° SE
Meteor 2-15 Rocket 4.4 20:21:50 10° N 20:27:55 81° E 20:33:59 10° S
Cosmos 1892 Rocket 4.3 20:24:43 10° NNW 20:29:06 56° W 20:33:28 10° S
Cosmos 1602 Rocket 3.7 20:33:17 10° N 20:37:39 53° E 20:40:24 21° SSE
H-2A R/B 2.7 20:35:07 16° SSE 20:38:03 69° ENE 20:41:57 10° N
Cosmos 1980 Rocket 2.5 20:33:24 10° S 20:38:42 44° ESE 20:44:04 10° NE
Cosmos 220 Rocket 4.1 20:37:29 10° N 20:41:36 50° ENE 20:43:07 33° SE
Lacrosse 5 3.4 20:39:45 10° N 20:43:26 20° NE 20:44:53 18° ENE
Cosmos 2123 Rocket 4.2 20:39:30 10° N 20:45:40 75° W 20:51:49 10° S
Cosmos 1975 3.2 20:42:29 10° SSW 20:46:33 68° W 20:50:38 10° N
Cosmos 1459 Rocket 4.1 20:42:25 10° SSE 20:48:08 46° E 20:53:54 10° NNE
ERS-1 Rocket 3.7 20:48:21 31° E 20:49:22 34° ENE 20:53:50 10° N
Cosmos 2150 Rocket 4.3 20:50:30 10° N 20:55:25 44° ENE 20:56:30 39° ESE
FENGYUN 3A 3.9 20:50:24 10° S 20:55:42 68° WSW 21:01:02 10° NNW
Lacrosse 5 rocket 0.8 20:54:04 10° NNW 20:57:43 75° NE 20:57:58 70° E
CZ-2D R/B 4.1 20:57:27 15° S 21:00:28 49° W 21:04:14 10° NNW
Cosmos 1763 Rocket 3.5 20:56:22 10° S 21:01:20 52° ESE 21:06:16 10° NNE
SJ-11-01 4.4 21:01:23 47° ESE 21:02:00 50° ENE 21:06:32 10° N
Delta 2 Rocket 4.0 20:56:43 10° WNW 21:02:23 68° SSW 21:03:59 44° SE
Resurs 01 Rocket 4.3 21:01:11 10° SW 21:04:13 18° W 21:07:16 10° NW
Fermi 4.3 21:01:15 10° WSW 21:04:54 42° S 21:04:54 42° S
CZ-4 DEB 4.4 21:07:23 25° N 21:07:23 25° N 21:08:53 10° N
Cosmos 1500 3.8 21:04:04 10° SSW 21:07:44 55° W 21:11:26 10° N
Hubble Space Telescope 2.8 21:07:46 10° WSW 21:10:27 17° SSW 21:10:37 17° SSW
Cosmos 1898 Rocket 3.4 21:06:17 10° N 21:11:33 70° ENE 21:12:34 55° SE
DELTA 2 R/B (1) 3.9 21:06:14 10° WNW 21:11:43 56° NNE 21:13:06 44° ENE
Cosmos 2322 Rocket 4.4 21:16:55 11° NE 21:16:55 11° NE 21:17:03 10° NE
Cosmos 2227 Rocket 3.2 21:09:07 10° NW 21:14:27 44° WSW 21:18:41 16° S
OAO 2 Rocket 3.9 21:17:00 10° WNW 21:21:53 50° N 21:22:50 44° NE
ALOS 4.2 21:19:35 10° SSW 21:23:32 27° W 21:27:31 10° NW
Cosmos 1939 Rocket 3.7 21:25:02 44° N 21:25:02 44° N 21:27:59 10° N
USA 186 4.0 21:23:38 20° WSW 21:24:10 21° W 21:26:31 10° NW
Cosmos 841 Rocket 3.3 21:23:26 52° S 21:24:44 81° ESE 21:29:58 10° NNE
SL-08 R/B 4.5 21:25:28 56° E 21:25:37 56° E 21:31:40 10° NNE
Cosmos 1802 Rocket 3.9 21:21:57 22° S 21:26:20 87° E 21:32:46 10° N
Cosmos 2360 4.1 21:20:43 10° SSW 21:26:24 85° ESE 21:32:09 10° NNE
Meteor 1-21 4.4 21:23:47 10° N 21:29:03 54° ENE 21:29:03 54° ENE
Cosmos 2297 Rocket 3.0 21:24:09 10° NNW 21:29:33 47° WSW 21:32:06 28° SSW
OTV 4 3.4 21:29:09 10° WNW 21:30:01 17° W 21:30:01 17° W
Cosmos 972 Rocket 4.5 21:30:05 10° NNW 21:36:21 89° ENE 21:37:45 60° SSE
Cosmos 2016 Rocket 3.8 21:35:00 54° S 21:36:30 87° E 21:42:42 10° N
H-2A R/B 4.1 21:57:54 22° NNW 21:57:54 22° NNW 21:59:28 10° NNW
RESURS DK-1 4.3 21:53:30 10° NNW 21:55:34 28° NW 21:55:34 28° NW
Envisat 3.9 22:03:38 46° WNW 22:03:38 46° WNW 22:07:47 10° NNW
SL-16 R/B 4.1 22:13:10 21° NNE 22:13:10 21° NNE 22:14:54 10° NNE
Lacrosse 5 3.8 22:21:43 10° NW 22:24:05 27° WNW 22:24:05 27° WNW
CZ-3C R/B 4.0 22:24:30 10° W 22:38:26 27° SW 22:38:26 27° SW
Cosmos 2263 Rocket 4.5 22:49:34 10° N 22:50:51 17° N 22:50:51 17° N
Cosmos 2322 Rocket 4.4 22:58:39 20° NNW 22:58:39 20° NNW 23:00:55 10° N
Milstar 3 Cent rocket 4.3 22:57:12 10° W 23:10:48 50° WSW 23:10:48 50° WSW
